NOAA 16 DEB, 41078

Orbit data source: Space-Track

NOAA 16 DEB, 41078 is space debris in SSO originally from a launch on Thu, 21 Sep 2000 UTC launched from the Air Force Western Test Range (AFWTR). Debris objects in space refer to the collection of defunct objects orbiting the Earth. Examples of debris include non-operational satellites, rocket bodies, and fragments generated from explosions, collisions, or faulty payload assembly.

Loading next visibility...
Identifier
41078, 2000-055AM
Orbit
SSO
Country
Flag of USUS
Related business
Manufacturer
Unknown
Mission
Spacecraft
Bus & Motor
Unknown
Mass
Unknown
Launch date (UTC)
2000-09-21 (25 years ago)
Launch vehicle
Unknown
Launch site
Air Force Western Test Range (AFWTR)
Object type
Payload
Rocket body
Debris
Shape & HBR
Unknown shape, 0.1 m
Radar Cross Section
Small (<0.1 m²)

Expand to show TLE details & history
Last TLE update: 12 hours ago

TLE from 12 hours ago
0 NOAA 16 DEB
1 41078U 00055AM  25308.64750817  .00000568  00000-0  63885-3 0  9998
2 41078  98.9105  79.9698 0288581 237.4412 119.8559 13.58247395492287
Epoch: 2025-11-04T15:32Z
TLE epoch observation values (Epoch: 2025-11-04T15:32:24.705Z)
Latitude
0.00004°
Longitude
162.73533°
Altitude
1,156.06 km
Speed
7.22 km/s
True Right ascension
05h 19m 52s
True Declination
0° 00' 00"
Sunlit
Object was in full shadow at epoch
Visualization orbit readout
Latitude
Unknown
Longitude
Unknown
Altitude
Unknown
Speed
Unknown
Apparent Right ascension
Unknown
Apparent Declination
Unknown
Sunlit
N/A
Visualization observer readout
Local Sidereal Time
23:38:11
Azimuth
Unknown
Elevation
Unknown
Doppler factor
Unknown
Orbital elements
Apogee altitude
1,253.37 km
Perigee altitude
825.262 km
Semi-major axis
7,417.453 km
Eccentricity
0.02886
Inclination
98.9105°
RAAN
79.9698°
Arg. of periapsis
237.4412°
True anomaly
122.67214°
Mean anomaly
119.8559°
Eccentric anomaly
121.26916°
Mean motion
3.39751 °/min
Orbital period
105.96 mins
BSTAR
0.00063885
Loading maneuver chart data...
Computing Atmospheric mass density...
Loading historical data...
Loading historical data...
Loading historical data...
Loading historical data...
Loading historical data...
Loading historical data...
Loading historical data...

Documentation

Showing up to 5 results
|